CMP134 MPTO-TNCM

Flight info

Callsign CMP134
Flight time N/A
Altitude 35000
Route REMAL1B REMAL A574 PONPO UL335 SCAPA L335 MLIZA DCT GOUDA
Aircraft B738/M-SDE2E3FGHIRWXY/LB1

Departure

Time N/A
Airport Tocumen International Airport (MPTO)

Arrival

Time 2026-05-04 12:29
Airport Princess Juliana International Airport (TNCM)
Time Latitude Longitude Altitude Speed Heading
2026-05-04 11:46 16.30846 -66.72921 37136 ft 459 kts 55°
2026-05-04 11:47 16.34289 -66.67295 37135 ft 459 kts 55°
2026-05-04 11:47 16.37704 -66.61711 37054 ft 461 kts 55°
2026-05-04 11:48 16.41139 -66.56087 37046 ft 460 kts 55°
2026-05-04 11:48 16.44567 -66.50472 37045 ft 459 kts 55°
2026-05-04 11:49 16.47994 -66.44855 37048 ft 458 kts 55°
2026-05-04 11:49 16.51412 -66.39247 37049 ft 458 kts 55°
2026-05-04 11:50 16.54274 -66.34549 37047 ft 458 kts 55°
2026-05-04 11:50 16.58240 -66.28032 37050 ft 458 kts 55°
2026-05-04 11:51 16.61078 -66.23367 37057 ft 458 kts 55°
2026-05-04 11:51 16.64489 -66.17754 37054 ft 458 kts 55°
2026-05-04 11:52 16.67899 -66.12137 37056 ft 458 kts 55°
2026-05-04 11:52 16.71308 -66.06518 37057 ft 458 kts 55°
2026-05-04 11:53 16.74715 -66.00900 37060 ft 458 kts 55°
2026-05-04 11:53 16.78121 -65.95277 37056 ft 458 kts 55°
2026-05-04 11:55 16.91711 -65.72796 37056 ft 458 kts 55°
2026-05-04 11:56 16.95105 -65.67170 37061 ft 458 kts 55°
2026-05-04 11:56 16.98497 -65.61544 37060 ft 457 kts 55°
2026-05-04 11:57 17.01893 -65.55905 37057 ft 457 kts 55°
2026-05-04 11:57 17.05256 -65.50316 37061 ft 457 kts 55°
2026-05-04 11:58 17.08641 -65.44688 36882 ft 460 kts 55°
2026-05-04 11:58 17.10374 -65.41807 36374 ft 463 kts 55°
2026-05-04 11:58 17.12064 -65.38994 35811 ft 462 kts 55°
2026-05-04 11:58 17.13778 -65.36138 35196 ft 463 kts 55°
2026-05-04 11:59 17.15491 -65.33285 34533 ft 466 kts 55°
2026-05-04 11:59 17.17222 -65.30400 33931 ft 467 kts 55°
2026-05-04 11:59 17.18939 -65.27537 33412 ft 465 kts 55°
2026-05-04 11:59 17.20653 -65.24675 32934 ft 462 kts 55°
2026-05-04 12:00 17.22347 -65.21847 32464 ft 458 kts 55°
2026-05-04 12:00 17.24039 -65.19021 32016 ft 455 kts 55°
2026-05-04 12:00 17.25711 -65.16228 31574 ft 453 kts 55°
2026-05-04 12:00 17.27374 -65.13449 31104 ft 451 kts 55°
2026-05-04 12:01 17.29046 -65.10655 30646 ft 449 kts 56°
2026-05-04 12:01 17.30695 -65.07896 30197 ft 447 kts 56°
2026-05-04 12:02 17.40382 -64.91673 27391 ft 429 kts 56°
2026-05-04 12:03 17.41958 -64.89031 26950 ft 425 kts 56°
2026-05-04 12:03 17.43516 -64.86417 26517 ft 422 kts 57°
2026-05-04 12:03 17.45069 -64.83813 26078 ft 419 kts 57°
2026-05-04 12:03 17.46604 -64.81235 25638 ft 417 kts 57°
2026-05-04 12:04 17.48137 -64.78662 25203 ft 414 kts 57°
2026-05-04 12:04 17.49652 -64.76115 24755 ft 412 kts 57°
2026-05-04 12:04 17.51166 -64.73571 24325 ft 409 kts 58°
2026-05-04 12:04 17.52664 -64.71053 23899 ft 407 kts 58°
2026-05-04 12:05 17.54159 -64.68538 23427 ft 404 kts 58°
2026-05-04 12:05 17.55637 -64.66050 22960 ft 401 kts 58°
2026-05-04 12:05 17.57108 -64.63573 22505 ft 398 kts 58°
2026-05-04 12:05 17.58566 -64.61117 22071 ft 394 kts 58°
2026-05-04 12:06 17.60006 -64.58692 21647 ft 391 kts 58°
2026-05-04 12:06 17.61421 -64.56306 21234 ft 388 kts 58°
2026-05-04 12:06 17.62861 -64.53879 20816 ft 386 kts 58°
2026-05-04 12:06 17.64256 -64.51525 20411 ft 383 kts 58°
2026-05-04 12:07 17.65656 -64.49163 19990 ft 381 kts 58°
2026-05-04 12:07 17.67057 -64.46798 19569 ft 381 kts 58°
2026-05-04 12:07 17.68449 -64.44448 19165 ft 379 kts 58°
2026-05-04 12:07 17.69844 -64.42092 18720 ft 380 kts 57°
2026-05-04 12:08 17.71240 -64.39733 18297 ft 380 kts 58°
2026-05-04 12:08 17.72628 -64.37387 17848 ft 379 kts 58°
2026-05-04 12:08 17.74016 -64.35040 17427 ft 377 kts 58°
2026-05-04 12:08 17.75389 -64.32717 17020 ft 374 kts 58°
2026-05-04 12:09 17.76752 -64.30410 16621 ft 372 kts 58°
2026-05-04 12:09 17.78113 -64.28108 16222 ft 369 kts 58°
2026-05-04 12:09 17.79459 -64.25817 15828 ft 367 kts 60°
2026-05-04 12:09 17.80535 -64.23415 15439 ft 364 kts 71°
2026-05-04 12:10 17.81185 -64.20859 15063 ft 360 kts 77°
2026-05-04 12:10 17.81750 -64.18315 14679 ft 358 kts 78°
2026-05-04 12:10 17.82311 -64.15773 14299 ft 355 kts 78°
2026-05-04 12:10 17.82869 -64.13260 13921 ft 353 kts 77°
2026-05-04 12:11 17.83430 -64.10752 13490 ft 351 kts 78°
2026-05-04 12:11 17.83988 -64.08276 13089 ft 348 kts 77°
2026-05-04 12:11 17.84547 -64.05809 12698 ft 345 kts 77°
2026-05-04 12:11 17.85099 -64.03377 12312 ft 342 kts 77°
2026-05-04 12:12 17.85648 -64.00956 11952 ft 339 kts 77°
2026-05-04 12:12 17.86194 -63.98553 11575 ft 336 kts 77°
2026-05-04 12:12 17.86726 -63.96212 11222 ft 334 kts 77°
2026-05-04 12:12 17.87263 -63.93843 10864 ft 332 kts 77°
2026-05-04 12:13 17.87793 -63.91510 10629 ft 325 kts 77°
2026-05-04 12:14 17.91151 -63.76671 9247 ft 285 kts 77°
2026-05-04 12:15 17.91612 -63.74629 8955 ft 283 kts 77°
2026-05-04 12:15 17.92060 -63.72646 8678 ft 281 kts 77°
2026-05-04 12:15 17.92509 -63.70655 8403 ft 279 kts 77°
2026-05-04 12:15 17.92954 -63.68685 8129 ft 277 kts 77°
2026-05-04 12:16 17.93396 -63.66724 7864 ft 274 kts 77°
2026-05-04 12:16 17.93818 -63.64803 7764 ft 266 kts 78°
2026-05-04 12:16 17.94229 -63.62903 7459 ft 267 kts 78°
2026-05-04 12:16 17.94637 -63.61010 7187 ft 266 kts 78°
2026-05-04 12:17 17.95045 -63.59118 6922 ft 265 kts 78°
2026-05-04 12:17 17.95448 -63.57252 6661 ft 264 kts 78°
2026-05-04 12:17 17.95854 -63.55370 6384 ft 263 kts 78°
2026-05-04 12:17 17.96257 -63.53503 6096 ft 262 kts 78°
2026-05-04 12:18 17.96658 -63.51644 5823 ft 260 kts 78°
2026-05-04 12:18 17.97057 -63.49793 5515 ft 260 kts 78°
2026-05-04 12:18 17.97450 -63.47971 5244 ft 258 kts 79°
2026-05-04 12:18 17.97845 -63.46141 4981 ft 257 kts 79°
2026-05-04 12:19 17.98238 -63.44316 4705 ft 254 kts 79°
2026-05-04 12:19 17.99439 -63.41382 4220 ft 239 kts 45°
2026-05-04 12:19 18.00898 -63.40622 3989 ft 235 kts 12°
2026-05-04 12:20 18.02458 -63.40778 3979 ft 218 kts 348°
2026-05-04 12:20 18.03865 -63.41251 3986 ft 207 kts 346°
2026-05-04 12:20 18.05202 -63.41730 3973 ft 197 kts 345°
2026-05-04 12:20 18.06458 -63.42191 3933 ft 185 kts 346°
2026-05-04 12:21 18.07689 -63.42322 3889 ft 173 kts 24°
2026-05-04 12:21 18.08597 -63.41626 3894 ft 160 kts 66°
2026-05-04 12:21 18.08810 -63.40559 3916 ft 147 kts 101°
2026-05-04 12:21 18.08389 -63.39614 3915 ft 144 kts 126°
2026-05-04 12:22 18.07730 -63.38654 4040 ft 176 kts 123°
2026-05-04 12:22 18.07026 -63.37604 3987 ft 173 kts 123°
2026-05-04 12:22 18.06336 -63.36591 3907 ft 169 kts 123°
2026-05-04 12:22 18.05657 -63.35600 3839 ft 166 kts 124°
2026-05-04 12:23 18.04976 -63.34613 3782 ft 167 kts 124°
2026-05-04 12:23 18.04289 -63.33620 3717 ft 168 kts 124°
2026-05-04 12:23 18.03598 -63.32623 3659 ft 169 kts 123°
2026-05-04 12:23 18.02899 -63.31617 3531 ft 173 kts 123°
2026-05-04 12:24 18.02183 -63.30586 3351 ft 174 kts 123°
2026-05-04 12:24 18.01599 -63.29517 3128 ft 165 kts 100°
2026-05-04 12:24 18.01641 -63.28406 3008 ft 148 kts 83°
2026-05-04 12:24 18.01775 -63.27368 2866 ft 140 kts 85°
2026-05-04 12:25 18.01907 -63.26356 2684 ft 139 kts 85°
2026-05-04 12:25 18.02042 -63.25359 2535 ft 136 kts 85°
2026-05-04 12:25 18.02177 -63.24386 2361 ft 134 kts 84°
2026-05-04 12:25 18.02313 -63.23420 2186 ft 134 kts 85°
2026-05-04 12:26 18.02451 -63.22441 2008 ft 137 kts 83°
2026-05-04 12:26 18.02595 -63.21448 1863 ft 137 kts 85°
2026-05-04 12:26 18.02733 -63.20467 1675 ft 136 kts 84°
2026-05-04 12:26 18.02871 -63.19487 1502 ft 135 kts 84°
2026-05-04 12:27 18.03008 -63.18515 1317 ft 134 kts 83°
2026-05-04 12:27 18.03147 -63.17538 1147 ft 137 kts 85°
2026-05-04 12:27 18.03285 -63.16573 973 ft 131 kts 85°
2026-05-04 12:27 18.03422 -63.15604 840 ft 142 kts 84°
2026-05-04 12:28 18.03573 -63.14575 638 ft 143 kts 83°
2026-05-04 12:28 18.03724 -63.13540 418 ft 143 kts 85°
2026-05-04 12:28 18.03856 -63.12525 214 ft 141 kts 82°
2026-05-04 12:28 18.04005 -63.11505 30 ft 139 kts 82°
2026-05-04 12:29 18.04126 -63.10656 20 ft 88 kts 81°
2026-05-04 12:29 18.04185 -63.10245 18 ft 29 kts 79°
2026-05-04 12:29 18.04215 -63.10041 20 ft 27 kts 82°
2026-05-04 12:29 18.04266 -63.09910 20 ft 16 kts 53°
2026-05-04 12:30 18.04272 -63.09847 20 ft 10 kts 169°
2026-05-04 12:30 18.04239 -63.09900 21 ft 10 kts 253°
2026-05-04 12:30 18.04221 -63.10014 18 ft 20 kts 263°
2026-05-04 12:30 18.04199 -63.10156 20 ft 19 kts 262°
2026-05-04 12:31 18.04180 -63.10291 18 ft 18 kts 261°
2026-05-04 12:31 18.04162 -63.10417 19 ft 17 kts 261°
2026-05-04 12:31 18.04145 -63.10533 20 ft 15 kts 261°
2026-05-04 12:31 18.04129 -63.10642 22 ft 15 kts 261°
2026-05-04 12:32 18.04111 -63.10767 20 ft 19 kts 261°
2026-05-04 12:32 18.04137 -63.10995 21 ft 14 kts 349°
2026-05-04 12:32 18.04166 -63.11061 20 ft 11 kts 263°
2026-05-04 12:33 18.04154 -63.11143 22 ft 11 kts 261°
2026-05-04 12:33 18.04142 -63.11222 20 ft 11 kts 261°
2026-05-04 12:33 18.04145 -63.11292 21 ft 9 kts 322°
2026-05-04 12:33 18.04209 -63.11308 20 ft 9 kts 346°
2026-05-04 12:34 18.04259 -63.11348 20 ft 9 kts 340°
2026-05-04 12:34 18.04306 -63.11358 20 ft 3 kts 352°
2026-05-04 12:34 18.04325 -63.11361 20 ft 0 kts 351°